Fallon Naval Air Station, Van Voorhis Field Fallon US
ICAO: KNFL
IATA: NFL
Category: Medium
Scheduled Services: No

Elevation: 3934 ft
TransAlt. 18000 ft.

Airport Communications:
NAVY FALLON APP/DEP:120.85
ATIS:37.092
CLNC DEL:35.355
GND:25.115
DESERT CON:126.2
BASE OPS:23.8
PMSV METRO:32.74
NAVY FALLON TWR:119.25

KNFL Zoom In..

If you have problems with the map follow the link
https://www.worldairports.se/pages/airport.php?
ICAO=KNFL

Runways:

(A) RW 07 length 7003 ft width 154 ft
---- / hdg 73

(B) RW 13L length 11080 ft width 200 ft
---- / hdg 131

(C) RW 13R length 14005 ft width 201 ft
---- / hdg 131

(D) RW 25 length 7003 ft width 154 ft
---- / hdg 253

(E) RW 31L length 14005 ft width 201 ft
---- / hdg 311

(F) RW 31R length 11080 ft width 200 ft
---- / hdg 311

Location; KNFL
Day. 07 / Time. 08.56 Zulu
* Altimeter: 30.02
* Temperature: -02° c. -28.4°f.
* Wind from: 310° Speed 04 kn.
Dewpoint: -02° c.
Visibility: 1/2 Statute Miles.
Conditions: Freezing fog.

KNFL 070856Z AUTO 31004KT 1/2SM FZFG VV002 M02/M02 A3002 RMK AO2 SLP135 T10221022 56011 $


Wind From 310°
Speed 04 kn.

 
 
jpsmedia worldairports.se 2019   terms of use